CST,Max TemperatureF,Mean TemperatureF,Min TemperatureF,Max Dew PointF,MeanDew PointF,Min DewpointF,Max Humidity, Mean Humidity, Min Humidity, Max Sea Level PressureIn, Mean Sea Level PressureIn, Min Sea Level PressureIn, Max VisibilityMiles, Mean VisibilityMiles, Min VisibilityMiles, Max Wind SpeedMPH, Mean Wind SpeedMPH, Max Gust SpeedMPH,PrecipitationIn, CloudCover, Events, WindDirDegrees
2012-2-1,35,28,21,28,25,18,93,82,70,30.04,29.98,29.84,10,10,1,14,7,17,0.00,7,,268
2012-2-2,35,28,21,30,28,19,100,86,75,30.32,30.18,30.04,10,8,1,9,4,,0.05,8,,272
2012-2-3,33,27,21,28,26,18,93,82,70,30.47,30.41,30.36,10,10,2,7,1,,0.00,5,,308
2012-2-4,42,26,10,28,20,3,100,75,53,30.36,30.28,30.16,10,10,3,17,5,21,0.00,0,,270
2012-2-5,42,28,15,30,21,10,100,79,42,30.25,30.19,30.07,10,7,0,17,3,22,0.00,3,,231
2012-2-6,35,30,26,27,24,18,86,77,69,30.18,30.01,29.93,10,10,10,16,11,21,0.00,3,,286
2012-2-7,21,18,12,16,8,1,80,64,49,30.48,30.42,30.30,10,10,10,14,9,18,0.00,5,,10
2012-2-8,33,22,10,1,-4,-9,62,37,21,30.35,30.20,30.08,10,10,10,20,11,21,0.00,0,,247
2012-2-9,35,26,17,23,10,3,86,52,30,30.05,29.89,29.77,10,9,1,20,12,28,0.00,2,,241
2012-2-10,19,14,8,16,4,-2,86,72,53,30.26,30.13,29.91,10,7,0,20,12,29,0.00,7,,3
2012-2-11,12,6,1,3,-2,-8,79,66,52,30.31,30.28,30.26,10,8,2,21,14,26,0.00,8,,272
2012-2-12,28,16,5,3,-3,-8,62,47,24,30.23,30.16,30.03,10,10,10,20,14,24,0.00,0,,255
2012-2-13,30,18,6,16,3,-9,73,47,32,29.98,29.83,29.70,10,10,10,12,5,17,0.00,4,,215
2012-2-14,30,28,26,23,21,19,80,75,64,29.73,29.68,29.66,10,10,10,10,6,,0.00,8,,222
2012-2-15,35,30,26,28,25,19,93,82,70,29.91,29.86,29.79,10,7,1,8,3,,0.07,8,,218
2012-2-16,33,30,28,30,23,19,87,72,56,29.96,29.91,29.88,10,10,10,18,11,25,0.00,7,,269
2012-2-17,30,26,21,25,19,12,86,74,63,29.99,29.95,29.93,10,9,2,9,4,,0.00,8,,295
2012-2-18,28,21,14,19,12,5,93,66,51,30.16,30.10,30.03,10,10,10,13,7,16,0.00,4,,284
2012-2-19,39,20,1,18,9,-6,92,64,36,30.11,30.07,30.01,10,10,10,8,1,,0.00,0,,216
2012-2-20,39,29,19,19,15,9,80,56,30,30.09,30.03,29.88,10,10,10,16,5,24,0.00,0,,172
2012-2-21,35,32,30,30,26,21,87,77,64,29.71,29.43,29.31,10,7,2,21,11,29,0.02,8,,189
2012-2-22,30,28,26,25,21,19,86,75,64,29.34,29.31,29.30,10,9,2,23,16,29,0.00,8,,267
2012-2-23,26,25,24,19,18,16,80,72,64,29.62,29.50,29.39,10,10,10,8,5,,0.00,8,,286
2012-2-24,28,24,19,25,19,16,93,81,74,29.82,29.67,29.60,10,7,1,17,6,23,0.00,8,,278
2012-2-25,24,15,6,18,11,-2,100,79,59,30.16,30.05,29.86,10,7,1,16,9,,0.00,5,,269
2012-2-26,32,24,17,27,19,10,93,75,64,30.15,29.83,29.68,10,8,2,22,10,29,0.01,8,,130
2012-2-27,28,24,19,28,18,12,100,80,59,30.34,30.09,29.73,10,7,1,20,14,29,0.00,7,,286
2012-2-28,30,20,10,23,16,7,86,73,63,30.33,30.22,30.05,10,9,1,14,5,20,0.00,8,,152
2012-2-29,30,29,28,28,26,25,93,88,80,29.86,29.54,29.40,10,6,0,24,15,32,0.00,8,,79